Home   Weather   Zwickau   Past weeks

Flag for Germany Past Weather in Zwickau, Saxony, Germany — Yesterday and Last 2 Weeks

Now
16 °F

Ice fog.


Feels Like: 10 °F
Forecast: 15 / 26 °F
Wind: 3 mph from South

Location: Hof Airport

Current Time: Jan 23, 2017 at 9:34:21 am

Latest Report: Jan 23, 2017 at 8:50 am


Visibility: 3 mi

Pressure: 30.18 "Hg

Humidity: 86%

Dew Point: 12 °F

Location of ZwickauLocation

Past Weather in Zwickau — Graph

°F

Zwickau Temperature Yesterday

Maximum temperature yesterday: 30 °F (at 1:50 pm)
Minimum temperature yesterday: 21 °F (at 9:20 am)
Average temperature yesterday: 27 °F

High & Low Weather Summary for the Past Weeks

 TemperatureHumidityPressure
High34 °F (Jan 12, 10:50 am)93% (Jan 8, 11:20 am)30.60 "Hg (Jan 8, 11:20 am)
Low3 °F (Jan 19, 7:20 am)31% (Jan 20, 12:50 pm)29.12 "Hg (Jan 13, 7:20 am)
Average25 °F81%30.10 "Hg
* Reported Jan 8 9:50 am — Jan 23 8:20 am, Zwickau, Weather by CustomWeather, © 2017

Note: Actual official high and low records may vary slightly from our data, if they occured in-between our weather recording intervals... More about our weather records

Advertising

Zwickau Weather History for the Previous 24 Hours

Scroll right to see more
 ConditionsComfort  
Time TempWeatherWind HumidityBarometerVisibility
8:20 am
Mon, Jan 23
14 °FIce fog.3 mph85%30.18 "Hg3 mi
7:50 am14 °FIce fog.3 mph85%30.15 "Hg3 mi
7:20 am14 °FIce fog.3 mph92%30.15 "Hg3 mi
6:50 am16 °FIce fog.5 mph86%30.15 "Hg3 mi
5:20 pm
Sun, Jan 22
25 °FClear.6 mph59%30.18 "Hg10 mi
4:20 pm27 °FSunny.7 mph59%30.21 "Hg10 mi
3:50 pm27 °FSunny.7 mph59%30.21 "Hg10 mi
3:20 pm28 °FSunny.5 mph51%30.21 "Hg10 mi
2:50 pm30 °FPassing clouds.5 mph51%30.21 "HgN/A
2:20 pm28 °FPassing clouds.6 mph55%30.21 "HgN/A
1:50 pm30 °FSunny.3 mph55%30.21 "Hg10 mi
1:20 pm28 °FPassing clouds.5 mph59%30.24 "HgN/A
12:20 pm28 °FSunny.3 mph55%30.24 "Hg10 mi
11:20 am27 °FPassing clouds.3 mph59%30.27 "HgN/A
10:50 am25 °FSunny.6 mph63%30.27 "Hg10 mi
10:20 am25 °FSunny.1 mph59%30.27 "Hg10 mi
9:50 am23 °FPassing clouds.5 mph63%30.27 "HgN/A
9:20 am21 °FSunny.3 mph68%30.27 "Hg10 mi
Weather by CustomWeather, © 2017

See weather overviewHow to use our weather pages